Time,TemperatureF,DewpointF,PressureIn,WindDirection,WindDirectionDegrees,WindSpeedMPH,WindSpeedGustMPH,Humidity,HourlyPrecipIn,Conditions,Clouds,dailyrainin,SoftwareType,DateUTC
2013-10-14 00:01:00,46.6,41.7,0.00,North,0,0.0,0.0,83,0.00,,,0.00,VWS V14.00,2013-10-14 04:01:00,
2013-10-14 00:02:00,46.6,41.7,0.00,North,0,0.0,0.0,83,0.00,,,0.00,VWS V14.00,2013-10-14 04:02:00,
2013-10-14 00:03:00,46.6,41.7,0.00,North,0,0.0,0.0,83,0.00,,,0.00,VWS V14.00,2013-10-14 04:03:00,
2013-10-14 00:07:00,46.4,41.8,0.00,North,0,0.0,0.0,84,0.00,,,0.00,VWS V14.00,2013-10-14 04:07:00,
2013-10-14 00:08:00,46.4,41.8,0.00,North,0,0.0,0.0,84,0.00,,,0.00,VWS V14.00,2013-10-14 04:08:00,
2013-10-14 00:11:00,46.4,41.8,0.00,North,0,0.0,0.0,84,0.00,,,0.00,VWS V14.00,2013-10-14 04:11:00,
2013-10-14 00:16:00,46.4,41.8,0.00,North,0,0.0,0.0,84,0.00,,,0.00,VWS V14.00,2013-10-14 04:16:00,
2013-10-14 00:22:00,45.9,41.6,0.00,North,0,0.0,0.0,85,0.00,,,0.00,VWS V14.00,2013-10-14 04:22:00,
2013-10-14 00:28:00,45.7,41.4,0.00,North,0,0.0,0.0,85,0.00,,,0.00,VWS V14.00,2013-10-14 04:28:00,
2013-10-14 00:33:00,45.5,41.3,0.00,North,0,0.0,0.0,85,0.00,,,0.00,VWS V14.00,2013-10-14 04:33:00,
2013-10-14 00:39:00,45.5,41.3,0.00,North,0,0.0,0.0,85,0.00,,,0.00,VWS V14.00,2013-10-14 04:39:00,
2013-10-14 00:44:00,45.1,40.9,0.00,North,0,0.0,0.0,85,0.00,,,0.00,VWS V14.00,2013-10-14 04:44:00,
2013-10-14 00:50:00,45.1,40.9,0.00,North,0,0.0,0.0,85,0.00,,,0.00,VWS V14.00,2013-10-14 04:50:00,
2013-10-14 00:55:00,45.1,40.9,0.00,North,0,0.0,0.0,85,0.00,,,0.00,VWS V14.00,2013-10-14 04:55:00,
2013-10-14 01:01:00,44.4,40.2,0.00,North,0,0.0,0.0,85,0.00,,,0.00,VWS V14.00,2013-10-14 05:01:00,
2013-10-14 01:06:00,44.2,40.0,0.00,North,0,0.0,0.0,85,0.00,,,0.00,VWS V14.00,2013-10-14 05:06:00,
2013-10-14 01:12:00,44.2,40.0,0.00,North,0,0.0,0.0,85,0.00,,,0.00,VWS V14.00,2013-10-14 05:12:00,
2013-10-14 01:18:00,43.9,40.0,0.00,North,0,0.0,0.0,86,0.00,,,0.00,VWS V14.00,2013-10-14 05:18:00,
2013-10-14 01:23:00,43.7,39.8,0.00,North,0,0.0,0.0,86,0.00,,,0.00,VWS V14.00,2013-10-14 05:23:00,
2013-10-14 01:29:00,43.5,39.6,0.00,North,0,0.0,0.0,86,0.00,,,0.00,VWS V14.00,2013-10-14 05:29:00,
2013-10-14 01:34:00,43.3,39.4,0.00,North,0,0.0,0.0,86,0.00,,,0.00,VWS V14.00,2013-10-14 05:34:00,
2013-10-14 01:40:00,43.2,39.3,0.00,North,0,0.0,0.0,86,0.00,,,0.00,VWS V14.00,2013-10-14 05:40:00,
2013-10-14 01:45:00,43.0,39.1,0.00,North,0,0.0,0.0,86,0.00,,,0.00,VWS V14.00,2013-10-14 05:45:00,
2013-10-14 01:51:00,42.8,38.9,0.00,North,0,0.0,0.0,86,0.00,,,0.00,VWS V14.00,2013-10-14 05:51:00,
2013-10-14 01:56:00,42.6,39.0,0.00,North,0,0.0,0.0,87,0.00,,,0.00,VWS V14.00,2013-10-14 05:56:00,
2013-10-14 02:02:00,42.6,39.0,0.00,North,0,0.0,0.0,87,0.00,,,0.00,VWS V14.00,2013-10-14 06:02:00,
2013-10-14 02:08:00,42.4,38.8,0.00,North,0,0.0,0.0,87,0.00,,,0.00,VWS V14.00,2013-10-14 06:08:00,
2013-10-14 02:13:00,42.3,38.7,0.00,North,0,0.0,0.0,87,0.00,,,0.00,VWS V14.00,2013-10-14 06:13:00,
2013-10-14 02:19:00,42.3,39.0,0.00,North,0,0.0,0.0,88,0.00,,,0.00,VWS V14.00,2013-10-14 06:19:00,
2013-10-14 02:24:00,42.3,39.0,0.00,North,0,0.0,0.0,88,0.00,,,0.00,VWS V14.00,2013-10-14 06:24:00,
2013-10-14 02:30:00,42.1,38.8,0.00,North,0,0.0,0.0,88,0.00,,,0.00,VWS V14.00,2013-10-14 06:30:00,
2013-10-14 02:36:00,41.7,38.4,0.00,North,0,0.0,0.0,88,0.00,,,0.00,VWS V14.00,2013-10-14 06:36:00,
2013-10-14 02:42:00,41.7,38.4,0.00,North,0,0.0,0.0,88,0.00,,,0.00,VWS V14.00,2013-10-14 06:42:00,
2013-10-14 02:47:00,41.5,38.3,0.00,North,0,0.0,0.0,88,0.00,,,0.00,VWS V14.00,2013-10-14 06:47:00,
2013-10-14 02:53:00,41.5,38.3,0.00,North,0,0.0,0.0,88,0.00,,,0.00,VWS V14.00,2013-10-14 06:53:00,
2013-10-14 02:58:00,41.4,38.1,0.00,North,0,0.0,0.0,88,0.00,,,0.00,VWS V14.00,2013-10-14 06:58:00,
2013-10-14 03:04:00,41.2,37.9,0.00,North,0,0.0,0.0,88,0.00,,,0.00,VWS V14.00,2013-10-14 07:04:00,
2013-10-14 03:09:00,41.0,38.0,0.00,North,0,0.0,0.0,89,0.00,,,0.00,VWS V14.00,2013-10-14 07:09:00,
2013-10-14 03:15:00,41.0,38.0,0.00,North,0,0.0,0.0,89,0.00,,,0.00,VWS V14.00,2013-10-14 07:15:00,
2013-10-14 03:20:00,40.8,37.8,0.00,North,0,0.0,0.0,89,0.00,,,0.00,VWS V14.00,2013-10-14 07:20:00,
2013-10-14 03:25:00,40.8,37.8,0.00,North,0,0.0,0.0,89,0.00,,,0.00,VWS V14.00,2013-10-14 07:25:00,
2013-10-14 03:30:00,40.8,37.8,0.00,North,0,0.0,0.0,89,0.00,,,0.00,VWS V14.00,2013-10-14 07:30:00,
2013-10-14 03:36:00,40.6,37.9,0.00,North,0,0.0,0.0,90,0.00,,,0.00,VWS V14.00,2013-10-14 07:36:00,
2013-10-14 03:41:00,40.5,37.8,0.00,North,0,0.0,0.0,90,0.00,,,0.00,VWS V14.00,2013-10-14 07:41:00,
2013-10-14 03:47:00,40.5,37.8,0.00,North,0,0.0,0.0,90,0.00,,,0.00,VWS V14.00,2013-10-14 07:47:00,
2013-10-14 03:52:00,40.5,37.8,0.00,North,0,0.0,0.0,90,0.00,,,0.00,VWS V14.00,2013-10-14 07:52:00,
2013-10-14 03:58:00,40.3,37.6,0.00,North,0,0.0,0.0,90,0.00,,,0.00,VWS V14.00,2013-10-14 07:58:00,
2013-10-14 04:03:00,40.1,37.4,0.00,North,0,0.0,0.0,90,0.00,,,0.00,VWS V14.00,2013-10-14 08:03:00,
2013-10-14 04:08:00,39.9,37.2,0.00,North,0,0.0,0.0,90,0.00,,,0.00,VWS V14.00,2013-10-14 08:08:00,
2013-10-14 04:14:00,39.9,37.2,0.00,North,0,0.0,0.0,90,0.00,,,0.00,VWS V14.00,2013-10-14 08:14:00,
2013-10-14 04:20:00,39.9,37.2,0.00,North,0,0.0,0.0,90,0.00,,,0.00,VWS V14.00,2013-10-14 08:20:00,
2013-10-14 04:25:00,39.9,37.2,0.00,North,0,0.0,0.0,90,0.00,,,0.00,VWS V14.00,2013-10-14 08:25:00,
2013-10-14 04:31:00,39.7,37.3,0.00,North,0,0.0,0.0,91,0.00,,,0.00,VWS V14.00,2013-10-14 08:31:00,
2013-10-14 04:36:00,39.7,37.3,0.00,North,0,0.0,0.0,91,0.00,,,0.00,VWS V14.00,2013-10-14 08:36:00,
2013-10-14 04:42:00,39.7,37.3,0.00,North,0,0.0,0.0,91,0.00,,,0.00,VWS V14.00,2013-10-14 08:42:00,
2013-10-14 04:48:00,39.4,37.0,0.00,North,0,0.0,0.0,91,0.00,,,0.00,VWS V14.00,2013-10-14 08:48:00,
2013-10-14 04:53:00,39.4,37.0,0.00,North,0,0.0,0.0,91,0.00,,,0.00,VWS V14.00,2013-10-14 08:53:00,
2013-10-14 04:59:00,39.4,37.0,0.00,North,0,0.0,0.0,91,0.00,,,0.00,VWS V14.00,2013-10-14 08:59:00,
2013-10-14 05:04:00,39.2,36.8,0.00,North,0,0.0,0.0,91,0.00,,,0.00,VWS V14.00,2013-10-14 09:04:00,
2013-10-14 05:09:00,39.2,36.8,0.00,North,0,0.0,0.0,91,0.00,,,0.00,VWS V14.00,2013-10-14 09:09:00,
2013-10-14 05:14:00,39.2,36.8,0.00,North,0,0.0,0.0,91,0.00,,,0.00,VWS V14.00,2013-10-14 09:14:00,
2013-10-14 05:19:00,39.2,36.8,0.00,North,0,0.0,0.0,91,0.00,,,0.00,VWS V14.00,2013-10-14 09:19:00,
2013-10-14 05:24:00,38.8,36.4,0.00,North,0,0.0,0.0,91,0.00,,,0.00,VWS V14.00,2013-10-14 09:24:00,
2013-10-14 05:29:00,38.8,36.4,0.00,North,0,0.0,0.0,91,0.00,,,0.00,VWS V14.00,2013-10-14 09:29:00,
2013-10-14 05:34:00,38.8,36.4,0.00,North,0,0.0,0.0,91,0.00,,,0.00,VWS V14.00,2013-10-14 09:34:00,
2013-10-14 05:40:00,38.8,36.4,0.00,North,0,0.0,0.0,91,0.00,,,0.00,VWS V14.00,2013-10-14 09:40:00,
2013-10-14 05:46:00,38.7,36.5,0.00,North,0,0.0,0.0,92,0.00,,,0.00,VWS V14.00,2013-10-14 09:46:00,
2013-10-14 05:51:00,38.7,36.5,0.00,North,0,0.0,0.0,92,0.00,,,0.00,VWS V14.00,2013-10-14 09:51:00,
2013-10-14 05:57:00,38.7,36.5,0.00,North,0,0.0,0.0,92,0.00,,,0.00,VWS V14.00,2013-10-14 09:57:00,
2013-10-14 06:02:00,38.5,36.4,0.00,North,0,0.0,0.0,92,0.00,,,0.00,VWS V14.00,2013-10-14 10:02:00,
2013-10-14 06:08:00,38.5,36.4,0.00,North,0,0.0,0.0,92,0.00,,,0.00,VWS V14.00,2013-10-14 10:08:00,
2013-10-14 06:14:00,38.5,36.4,0.00,North,0,0.0,0.0,92,0.00,,,0.00,VWS V14.00,2013-10-14 10:14:00,
2013-10-14 06:19:00,38.5,36.4,0.00,North,0,0.0,0.0,92,0.00,,,0.00,VWS V14.00,2013-10-14 10:19:00,
2013-10-14 06:25:00,38.5,36.4,0.00,North,0,0.0,0.0,92,0.00,,,0.00,VWS V14.00,2013-10-14 10:25:00,
2013-10-14 06:30:00,38.3,36.2,0.00,North,0,0.0,0.0,92,0.00,,,0.00,VWS V14.00,2013-10-14 10:30:00,
2013-10-14 06:35:00,38.1,36.0,0.00,North,0,0.0,0.0,92,0.00,,,0.00,VWS V14.00,2013-10-14 10:35:00,
2013-10-14 06:40:00,38.1,36.0,0.00,North,0,0.0,0.0,92,0.00,,,0.00,VWS V14.00,2013-10-14 10:40:00,
2013-10-14 06:45:00,38.1,36.3,0.00,North,0,0.0,0.0,93,0.00,,,0.00,VWS V14.00,2013-10-14 10:45:00,
2013-10-14 06:51:00,38.1,36.3,0.00,North,0,0.0,0.0,93,0.00,,,0.00,VWS V14.00,2013-10-14 10:51:00,
2013-10-14 06:56:00,37.9,36.1,0.00,North,0,0.0,0.0,93,0.00,,,0.00,VWS V14.00,2013-10-14 10:56:00,
2013-10-14 07:02:00,37.9,36.1,0.00,North,0,0.0,0.0,93,0.00,,,0.00,VWS V14.00,2013-10-14 11:02:00,
2013-10-14 07:07:00,37.9,36.1,0.00,North,0,0.0,0.0,93,0.00,,,0.00,VWS V14.00,2013-10-14 11:07:00,
2013-10-14 07:13:00,37.9,36.1,0.00,North,0,0.0,0.0,93,0.00,,,0.00,VWS V14.00,2013-10-14 11:13:00,
2013-10-14 07:18:00,37.9,36.1,0.00,North,0,0.0,0.0,93,0.00,,,0.00,VWS V14.00,2013-10-14 11:18:00,
2013-10-14 07:24:00,37.8,35.9,0.00,North,0,0.0,0.0,93,0.00,,,0.00,VWS V14.00,2013-10-14 11:24:00,
2013-10-14 07:29:00,37.8,35.9,0.00,North,0,0.0,0.0,93,0.00,,,0.00,VWS V14.00,2013-10-14 11:29:00,
2013-10-14 07:34:00,37.8,35.9,0.00,North,0,0.0,0.0,93,0.00,,,0.00,VWS V14.00,2013-10-14 11:34:00,
2013-10-14 07:40:00,37.8,35.9,0.00,North,0,0.0,0.0,93,0.00,,,0.00,VWS V14.00,2013-10-14 11:40:00,
2013-10-14 07:45:00,37.6,35.7,0.00,North,0,0.0,0.0,93,0.00,,,0.00,VWS V14.00,2013-10-14 11:45:00,
2013-10-14 07:51:00,37.6,35.7,0.00,North,0,0.0,0.0,93,0.00,,,0.00,VWS V14.00,2013-10-14 11:51:00,
2013-10-14 07:57:00,37.6,35.7,0.00,North,0,0.0,0.0,93,0.00,,,0.00,VWS V14.00,2013-10-14 11:57:00,
2013-10-14 08:02:00,37.6,35.7,0.00,North,0,0.0,0.0,93,0.00,,,0.00,VWS V14.00,2013-10-14 12:02:00,
2013-10-14 08:08:00,37.6,35.7,0.00,North,0,0.0,0.0,93,0.00,,,0.00,VWS V14.00,2013-10-14 12:08:00,
2013-10-14 08:14:00,37.4,35.8,0.00,North,0,0.0,0.0,94,0.00,,,0.00,VWS V14.00,2013-10-14 12:14:00,
2013-10-14 08:20:00,37.4,35.8,0.00,North,0,0.0,0.0,94,0.00,,,0.00,VWS V14.00,2013-10-14 12:20:00,
2013-10-14 08:26:00,37.4,35.8,0.00,North,0,0.0,0.0,94,0.00,,,0.00,VWS V14.00,2013-10-14 12:26:00,
2013-10-14 08:32:00,37.6,36.0,0.00,North,0,0.0,0.0,94,0.00,,,0.00,VWS V14.00,2013-10-14 12:32:00,
2013-10-14 08:38:00,37.6,36.0,0.00,North,0,0.0,0.0,94,0.00,,,0.00,VWS V14.00,2013-10-14 12:38:00,
2013-10-14 08:43:00,37.6,36.0,0.00,North,0,0.0,0.0,94,0.00,,,0.00,VWS V14.00,2013-10-14 12:43:00,
2013-10-14 08:49:00,37.9,36.4,0.00,North,0,0.0,0.0,94,0.00,,,0.00,VWS V14.00,2013-10-14 12:49:00,
2013-10-14 08:54:00,38.1,36.5,0.00,North,0,0.0,0.0,94,0.00,,,0.00,VWS V14.00,2013-10-14 12:54:00,
2013-10-14 09:00:00,38.5,37.2,0.00,North,0,0.0,0.0,95,0.00,,,0.00,VWS V14.00,2013-10-14 13:00:00,
2013-10-14 09:06:00,38.8,37.5,0.00,North,0,0.0,0.0,95,0.00,,,0.00,VWS V14.00,2013-10-14 13:06:00,
2013-10-14 09:12:00,39.2,37.9,0.00,North,0,0.0,0.0,95,0.00,,,0.00,VWS V14.00,2013-10-14 13:12:00,
2013-10-14 09:17:00,39.4,38.1,0.00,North,0,0.0,0.0,95,0.00,,,0.00,VWS V14.00,2013-10-14 13:17:00,
2013-10-14 09:22:00,39.9,38.6,0.00,North,0,0.0,0.0,95,0.00,,,0.00,VWS V14.00,2013-10-14 13:22:00,
2013-10-14 09:27:00,40.3,39.2,0.00,North,0,0.0,0.0,96,0.00,,,0.00,VWS V14.00,2013-10-14 13:27:00,
2013-10-14 09:33:00,40.3,39.2,0.00,North,0,0.0,0.0,96,0.00,,,0.00,VWS V14.00,2013-10-14 13:33:00,
2013-10-14 09:38:00,40.3,39.2,0.00,North,0,0.0,0.0,96,0.00,,,0.00,VWS V14.00,2013-10-14 13:38:00,
2013-10-14 09:43:00,42.1,41.0,0.00,North,0,0.0,0.0,96,0.00,,,0.00,VWS V14.00,2013-10-14 13:43:00,
2013-10-14 09:48:00,42.3,41.5,0.00,North,0,0.0,0.0,97,0.00,,,0.00,VWS V14.00,2013-10-14 13:48:00,
2013-10-14 09:54:00,42.8,42.0,0.00,North,0,0.0,0.0,97,0.00,,,0.00,VWS V14.00,2013-10-14 13:54:00,
2013-10-14 09:59:00,42.8,42.0,0.00,North,0,0.0,0.0,97,0.00,,,0.00,VWS V14.00,2013-10-14 13:59:00,
2013-10-14 10:05:00,44.2,43.4,0.00,North,0,0.0,0.0,97,0.00,,,0.00,VWS V14.00,2013-10-14 14:05:00,
2013-10-14 10:10:00,45.5,45.0,0.00,North,0,0.0,0.0,98,0.00,,,0.00,VWS V14.00,2013-10-14 14:10:00,
2013-10-14 10:15:00,46.0,45.5,0.00,North,0,0.0,0.0,98,0.00,,,0.00,VWS V14.00,2013-10-14 14:15:00,
2013-10-14 10:21:00,46.6,46.0,0.00,North,0,0.0,0.0,98,0.00,,,0.00,VWS V14.00,2013-10-14 14:21:00,
2013-10-14 10:27:00,46.6,46.0,0.00,North,0,0.0,0.0,98,0.00,,,0.00,VWS V14.00,2013-10-14 14:27:00,
2013-10-14 10:33:00,47.7,47.1,0.00,North,0,0.0,0.0,98,0.00,,,0.00,VWS V14.00,2013-10-14 14:33:00,
2013-10-14 10:38:00,47.7,47.1,0.00,North,0,0.0,0.0,98,0.00,,,0.00,VWS V14.00,2013-10-14 14:38:00,
2013-10-14 10:43:00,48.9,48.4,0.00,North,0,0.0,0.0,98,0.00,,,0.00,VWS V14.00,2013-10-14 14:43:00,
2013-10-14 10:48:00,48.9,48.4,0.00,North,0,0.0,0.0,98,0.00,,,0.00,VWS V14.00,2013-10-14 14:48:00,
2013-10-14 10:53:00,48.9,48.4,0.00,North,0,0.0,0.0,98,0.00,,,0.00,VWS V14.00,2013-10-14 14:53:00,
2013-10-14 10:59:00,50.7,46.4,0.00,North,0,0.0,0.0,85,0.00,,,0.00,VWS V14.00,2013-10-14 14:59:00,
2013-10-14 11:05:00,51.3,45.0,0.00,North,0,0.0,0.0,79,0.00,,,0.00,VWS V14.00,2013-10-14 15:05:00,
2013-10-14 11:10:00,51.3,45.0,0.00,North,0,0.0,0.0,79,0.00,,,0.00,VWS V14.00,2013-10-14 15:10:00,
2013-10-14 11:16:00,51.6,44.3,0.00,North,0,0.0,0.0,76,0.00,,,0.00,VWS V14.00,2013-10-14 15:16:00,
2013-10-14 11:21:00,52.2,44.1,0.00,North,0,0.0,0.0,74,0.00,,,0.00,VWS V14.00,2013-10-14 15:21:00,
2013-10-14 11:26:00,52.2,44.1,0.00,North,0,0.0,0.0,74,0.00,,,0.00,VWS V14.00,2013-10-14 15:26:00,
2013-10-14 11:31:00,52.2,44.1,0.00,North,0,0.0,0.0,74,0.00,,,0.00,VWS V14.00,2013-10-14 15:31:00,
2013-10-14 11:37:00,53.6,42.5,0.00,North,0,0.0,0.0,66,0.00,,,0.00,VWS V14.00,2013-10-14 15:37:00,
2013-10-14 11:42:00,54.0,42.5,0.00,North,0,0.0,0.0,65,0.00,,,0.00,VWS V14.00,2013-10-14 15:42:00,
2013-10-14 11:47:00,54.1,42.7,0.00,North,0,0.0,0.0,65,0.00,,,0.00,VWS V14.00,2013-10-14 15:47:00,
2013-10-14 11:53:00,54.1,42.7,0.00,North,0,0.0,0.0,65,0.00,,,0.00,VWS V14.00,2013-10-14 15:53:00,
2013-10-14 11:58:00,54.7,41.9,0.00,North,0,0.0,0.0,62,0.00,,,0.00,VWS V14.00,2013-10-14 15:58:00,
2013-10-14 12:04:00,54.7,41.9,0.00,North,0,0.0,0.0,62,0.00,,,0.00,VWS V14.00,2013-10-14 16:04:00,
2013-10-14 12:09:00,55.4,41.8,0.00,North,0,0.0,0.0,60,0.00,,,0.00,VWS V14.00,2013-10-14 16:09:00,
2013-10-14 12:14:00,55.6,41.0,0.00,North,0,0.0,0.0,58,0.00,,,0.00,VWS V14.00,2013-10-14 16:14:00,
2013-10-14 12:19:00,56.3,41.7,0.00,North,0,0.0,0.0,58,0.00,,,0.00,VWS V14.00,2013-10-14 16:19:00,
2013-10-14 12:24:00,56.3,41.7,0.00,North,0,0.0,0.0,58,0.00,,,0.00,VWS V14.00,2013-10-14 16:24:00,
2013-10-14 12:30:00,57.2,41.7,0.00,North,0,0.0,0.0,56,0.00,,,0.00,VWS V14.00,2013-10-14 16:30:00,
2013-10-14 12:35:00,57.2,41.7,0.00,North,0,0.0,0.0,56,0.00,,,0.00,VWS V14.00,2013-10-14 16:35:00,
2013-10-14 12:41:00,57.2,41.7,0.00,North,0,0.0,0.0,56,0.00,,,0.00,VWS V14.00,2013-10-14 16:41:00,
2013-10-14 12:46:00,58.6,42.1,0.00,North,0,0.0,0.0,54,0.00,,,0.00,VWS V14.00,2013-10-14 16:46:00,
2013-10-14 12:52:00,59.4,42.2,0.00,North,0,0.0,0.0,53,0.00,,,0.00,VWS V14.00,2013-10-14 16:52:00,
2013-10-14 12:57:00,59.9,42.2,0.00,North,0,0.0,0.0,52,0.00,,,0.00,VWS V14.00,2013-10-14 16:57:00,
2013-10-14 13:02:00,59.9,41.8,0.00,North,0,0.0,0.0,51,0.00,,,0.00,VWS V14.00,2013-10-14 17:02:00,
2013-10-14 13:07:00,59.9,41.8,0.00,North,0,0.0,0.0,51,0.00,,,0.00,VWS V14.00,2013-10-14 17:07:00,
2013-10-14 13:12:00,61.0,41.2,0.00,North,0,0.0,0.0,48,0.00,,,0.00,VWS V14.00,2013-10-14 17:12:00,
2013-10-14 13:18:00,61.2,40.2,0.00,North,0,0.0,0.0,46,0.00,,,0.00,VWS V14.00,2013-10-14 17:18:00,
2013-10-14 13:23:00,61.9,40.9,0.00,North,0,0.0,0.0,46,0.00,,,0.00,VWS V14.00,2013-10-14 17:23:00,
2013-10-14 13:29:00,61.9,40.9,0.00,North,0,0.0,0.0,46,0.00,,,0.00,VWS V14.00,2013-10-14 17:29:00,
2013-10-14 13:35:00,63.1,41.5,0.00,North,0,0.0,0.0,45,0.00,,,0.00,VWS V14.00,2013-10-14 17:35:00,
2013-10-14 13:40:00,63.1,41.5,0.00,North,0,0.0,0.0,45,0.00,,,0.00,VWS V14.00,2013-10-14 17:40:00,
2013-10-14 13:46:00,63.9,39.7,0.00,North,0,0.0,0.0,41,0.00,,,0.00,VWS V14.00,2013-10-14 17:46:00,
2013-10-14 13:51:00,64.2,39.4,0.00,North,0,0.0,0.0,40,0.00,,,0.00,VWS V14.00,2013-10-14 17:51:00,
2013-10-14 13:57:00,64.2,39.4,0.00,North,0,0.0,0.0,40,0.00,,,0.00,VWS V14.00,2013-10-14 17:57:00,
2013-10-14 14:02:00,64.8,40.5,0.00,North,0,0.0,0.0,41,0.00,,,0.00,VWS V14.00,2013-10-14 18:02:00,
2013-10-14 14:07:00,64.8,40.5,0.00,North,0,0.0,0.0,41,0.00,,,0.00,VWS V14.00,2013-10-14 18:07:00,
2013-10-14 14:12:00,66.0,41.0,0.00,North,0,0.0,0.0,40,0.00,,,0.00,VWS V14.00,2013-10-14 18:12:00,
2013-10-14 14:18:00,66.4,40.0,0.00,North,0,0.0,0.0,38,0.00,,,0.00,VWS V14.00,2013-10-14 18:18:00,
2013-10-14 14:23:00,66.7,39.7,0.00,North,0,0.0,0.0,37,0.00,,,0.00,VWS V14.00,2013-10-14 18:23:00,
2013-10-14 14:29:00,66.7,39.7,0.00,North,0,0.0,0.0,37,0.00,,,0.00,VWS V14.00,2013-10-14 18:29:00,
2013-10-14 14:34:00,67.1,39.3,0.00,North,0,0.0,0.0,36,0.00,,,0.00,VWS V14.00,2013-10-14 18:34:00,
2013-10-14 14:40:00,67.5,41.0,0.00,North,0,0.0,0.0,38,0.00,,,0.00,VWS V14.00,2013-10-14 18:40:00,
2013-10-14 14:45:00,67.8,40.6,0.00,North,0,0.0,0.0,37,0.00,,,0.00,VWS V14.00,2013-10-14 18:45:00,
2013-10-14 14:51:00,67.8,40.6,0.00,North,0,0.0,0.0,37,0.00,,,0.00,VWS V14.00,2013-10-14 18:51:00,
2013-10-14 14:57:00,68.7,40.0,0.00,North,0,0.0,0.0,35,0.00,,,0.00,VWS V14.00,2013-10-14 18:57:00,
2013-10-14 15:03:00,68.7,40.0,0.00,North,0,0.0,0.0,35,0.00,,,0.00,VWS V14.00,2013-10-14 19:03:00,
2013-10-14 15:08:00,68.7,40.0,0.00,North,0,0.0,0.0,35,0.00,,,0.00,VWS V14.00,2013-10-14 19:08:00,
2013-10-14 15:14:00,69.1,40.3,0.00,North,0,0.0,0.0,35,0.00,,,0.00,VWS V14.00,2013-10-14 19:14:00,
2013-10-14 15:20:00,69.6,40.0,0.00,North,0,0.0,0.0,34,0.00,,,0.00,VWS V14.00,2013-10-14 19:20:00,
2013-10-14 15:25:00,69.8,40.2,0.00,North,0,0.0,0.0,34,0.00,,,0.00,VWS V14.00,2013-10-14 19:25:00,
2013-10-14 15:30:00,69.8,40.2,0.00,North,0,0.0,0.0,34,0.00,,,0.00,VWS V14.00,2013-10-14 19:30:00,
2013-10-14 15:35:00,69.8,39.4,0.00,North,0,0.0,0.0,33,0.00,,,0.00,VWS V14.00,2013-10-14 19:35:00,
2013-10-14 15:41:00,69.8,39.4,0.00,North,0,0.0,0.0,33,0.00,,,0.00,VWS V14.00,2013-10-14 19:41:00,
2013-10-14 15:46:00,69.8,39.4,0.00,North,0,0.0,0.0,33,0.00,,,0.00,VWS V14.00,2013-10-14 19:46:00,
2013-10-14 15:52:00,69.8,39.4,0.00,North,0,0.0,0.0,33,0.00,,,0.00,VWS V14.00,2013-10-14 19:52:00,
2013-10-14 15:58:00,70.0,38.8,0.00,North,0,0.0,0.0,32,0.00,,,0.00,VWS V14.00,2013-10-14 19:58:00,
2013-10-14 16:03:00,70.2,39.0,0.00,North,0,0.0,0.0,32,0.00,,,0.00,VWS V14.00,2013-10-14 20:03:00,
2013-10-14 16:09:00,70.2,39.0,0.00,North,0,0.0,0.0,32,0.00,,,0.00,VWS V14.00,2013-10-14 20:09:00,
2013-10-14 16:15:00,70.3,39.1,0.00,North,0,0.0,0.0,32,0.00,,,0.00,VWS V14.00,2013-10-14 20:15:00,
2013-10-14 16:20:00,70.3,39.1,0.00,North,0,0.0,0.0,32,0.00,,,0.00,VWS V14.00,2013-10-14 20:20:00,
2013-10-14 16:26:00,70.7,39.4,0.00,North,0,0.0,0.0,32,0.00,,,0.00,VWS V14.00,2013-10-14 20:26:00,
2013-10-14 16:31:00,70.7,39.4,0.00,North,0,0.0,0.0,32,0.00,,,0.00,VWS V14.00,2013-10-14 20:31:00,
2013-10-14 16:37:00,70.9,38.8,0.00,North,0,0.0,0.0,31,0.00,,,0.00,VWS V14.00,2013-10-14 20:37:00,
2013-10-14 16:43:00,70.9,38.8,0.00,North,0,0.0,0.0,31,0.00,,,0.00,VWS V14.00,2013-10-14 20:43:00,
2013-10-14 16:48:00,70.9,39.6,0.00,North,0,0.0,0.0,32,0.00,,,0.00,VWS V14.00,2013-10-14 20:48:00,
2013-10-14 16:54:00,70.9,39.6,0.00,North,0,0.0,0.0,32,0.00,,,0.00,VWS V14.00,2013-10-14 20:54:00,
2013-10-14 16:59:00,70.3,39.1,0.00,North,0,0.0,0.0,32,0.00,,,0.00,VWS V14.00,2013-10-14 20:59:00,
2013-10-14 17:03:00,70.3,39.1,0.00,North,0,0.0,0.0,32,0.00,,,0.00,VWS V14.00,2013-10-14 21:03:00,
2013-10-14 17:08:00,70.5,39.3,0.00,North,0,0.0,0.0,32,0.00,,,0.00,VWS V14.00,2013-10-14 21:08:00,
2013-10-14 17:14:00,70.2,36.5,0.00,North,0,0.0,0.0,29,0.00,,,0.00,VWS V14.00,2013-10-14 21:14:00,
2013-10-14 17:20:00,69.8,36.1,0.00,North,0,0.0,0.0,29,0.00,,,0.00,VWS V14.00,2013-10-14 21:20:00,
2013-10-14 17:25:00,69.8,37.0,0.00,North,0,0.0,0.0,30,0.00,,,0.00,VWS V14.00,2013-10-14 21:25:00,
2013-10-14 17:30:00,69.8,37.0,0.00,North,0,0.0,0.0,30,0.00,,,0.00,VWS V14.00,2013-10-14 21:30:00,
2013-10-14 17:36:00,69.1,38.0,0.00,North,0,0.0,0.0,32,0.00,,,0.00,VWS V14.00,2013-10-14 21:36:00,
2013-10-14 17:42:00,69.1,38.0,0.00,North,0,0.0,0.0,32,0.00,,,0.00,VWS V14.00,2013-10-14 21:42:00,
2013-10-14 17:47:00,68.5,35.9,0.00,North,0,0.0,0.0,30,0.00,,,0.00,VWS V14.00,2013-10-14 21:47:00,
2013-10-14 17:53:00,68.5,35.9,0.00,North,0,0.0,0.0,30,0.00,,,0.00,VWS V14.00,2013-10-14 21:53:00,
2013-10-14 17:58:00,67.8,35.3,0.00,North,0,0.0,0.0,30,0.00,,,0.00,VWS V14.00,2013-10-14 21:58:00,
2013-10-14 18:04:00,67.3,35.6,0.00,North,0,0.0,0.0,31,0.00,,,0.00,VWS V14.00,2013-10-14 22:04:00,
2013-10-14 18:10:00,66.9,35.3,0.00,North,0,0.0,0.0,31,0.00,,,0.00,VWS V14.00,2013-10-14 22:10:00,
2013-10-14 18:15:00,66.4,34.9,0.00,North,0,0.0,0.0,31,0.00,,,0.00,VWS V14.00,2013-10-14 22:15:00,
2013-10-14 18:21:00,66.4,34.9,0.00,North,0,0.0,0.0,31,0.00,,,0.00,VWS V14.00,2013-10-14 22:21:00,
2013-10-14 18:26:00,65.7,34.2,0.00,North,0,0.0,0.0,31,0.00,,,0.00,VWS V14.00,2013-10-14 22:26:00,
2013-10-14 18:31:00,65.7,34.2,0.00,North,0,0.0,0.0,31,0.00,,,0.00,VWS V14.00,2013-10-14 22:31:00,
2013-10-14 18:36:00,64.0,33.6,0.00,North,0,0.0,0.0,32,0.00,,,0.00,VWS V14.00,2013-10-14 22:36:00,
2013-10-14 18:41:00,62.8,33.3,0.00,North,0,0.0,0.0,33,0.00,,,0.00,VWS V14.00,2013-10-14 22:41:00,
2013-10-14 18:47:00,61.9,33.2,0.00,North,0,0.0,0.0,34,0.00,,,0.00,VWS V14.00,2013-10-14 22:47:00,
2013-10-14 18:53:00,61.2,32.6,0.00,North,0,0.0,0.0,34,0.00,,,0.00,VWS V14.00,2013-10-14 22:53:00,
2013-10-14 18:58:00,60.4,32.7,0.00,North,0,0.0,0.0,35,0.00,,,0.00,VWS V14.00,2013-10-14 22:58:00,
2013-10-14 19:03:00,60.4,32.7,0.00,North,0,0.0,0.0,35,0.00,,,0.00,VWS V14.00,2013-10-14 23:03:00,
2013-10-14 19:09:00,60.4,32.7,0.00,North,0,0.0,0.0,35,0.00,,,0.00,VWS V14.00,2013-10-14 23:09:00,
2013-10-14 19:14:00,59.0,32.1,0.00,North,0,0.0,0.0,36,0.00,,,0.00,VWS V14.00,2013-10-14 23:14:00,
2013-10-14 19:20:00,59.0,32.1,0.00,North,0,0.0,0.0,36,0.00,,,0.00,VWS V14.00,2013-10-14 23:20:00,
2013-10-14 19:26:00,57.9,31.8,0.00,North,0,0.0,0.0,37,0.00,,,0.00,VWS V14.00,2013-10-14 23:26:00,
2013-10-14 19:32:00,57.4,32.0,0.00,North,0,0.0,0.0,38,0.00,,,0.00,VWS V14.00,2013-10-14 23:32:00,
2013-10-14 19:38:00,57.0,32.3,0.00,North,0,0.0,0.0,39,0.00,,,0.00,VWS V14.00,2013-10-14 23:38:00,
2013-10-14 19:43:00,56.8,32.2,0.00,North,0,0.0,0.0,39,0.00,,,0.00,VWS V14.00,2013-10-14 23:43:00,
2013-10-14 19:48:00,56.7,32.6,0.00,North,0,0.0,0.0,40,0.00,,,0.00,VWS V14.00,2013-10-14 23:48:00,
2013-10-14 19:54:00,56.5,33.1,0.00,North,0,0.0,0.0,41,0.00,,,0.00,VWS V14.00,2013-10-14 23:54:00,
2013-10-14 19:59:00,55.9,33.2,0.00,North,0,0.0,0.0,42,0.00,,,0.00,VWS V14.00,2013-10-14 23:59:00,
2013-10-14 20:05:00,55.4,33.9,0.00,North,0,0.0,0.0,44,0.00,,,0.00,VWS V14.00,2013-10-15 00:05:00,
2013-10-14 20:10:00,54.9,33.9,0.00,North,0,0.0,0.0,45,0.00,,,0.00,VWS V14.00,2013-10-15 00:10:00,
2013-10-14 20:16:00,54.7,34.3,0.00,North,0,0.0,0.0,46,0.00,,,0.00,VWS V14.00,2013-10-15 00:16:00,
2013-10-14 20:21:00,54.0,34.2,0.00,North,0,0.0,0.0,47,0.00,,,0.00,VWS V14.00,2013-10-15 00:21:00,
2013-10-14 20:27:00,53.2,34.1,0.00,North,0,0.0,0.0,48,0.00,,,0.00,VWS V14.00,2013-10-15 00:27:00,
2013-10-14 20:33:00,52.9,34.3,0.00,North,0,0.0,0.0,49,0.00,,,0.00,VWS V14.00,2013-10-15 00:33:00,
2013-10-14 20:38:00,52.7,34.6,0.00,North,0,0.0,0.0,50,0.00,,,0.00,VWS V14.00,2013-10-15 00:38:00,
2013-10-14 20:44:00,52.7,34.6,0.00,North,0,0.0,0.0,50,0.00,,,0.00,VWS V14.00,2013-10-15 00:44:00,
2013-10-14 20:50:00,51.4,34.9,0.00,North,0,0.0,0.0,53,0.00,,,0.00,VWS V14.00,2013-10-15 00:50:00,
2013-10-14 20:55:00,51.4,34.9,0.00,North,0,0.0,0.0,53,0.00,,,0.00,VWS V14.00,2013-10-15 00:55:00,
2013-10-14 21:01:00,50.9,34.9,0.00,North,0,0.0,0.0,54,0.00,,,0.00,VWS V14.00,2013-10-15 01:01:00,
2013-10-14 21:07:00,50.9,34.9,0.00,North,0,0.0,0.0,54,0.00,,,0.00,VWS V14.00,2013-10-15 01:07:00,
2013-10-14 21:12:00,50.9,34.9,0.00,North,0,0.0,0.0,54,0.00,,,0.00,VWS V14.00,2013-10-15 01:12:00,
2013-10-14 21:18:00,49.5,34.9,0.00,North,0,0.0,0.0,57,0.00,,,0.00,VWS V14.00,2013-10-15 01:18:00,
2013-10-14 21:23:00,49.1,35.0,0.00,North,0,0.0,0.0,58,0.00,,,0.00,VWS V14.00,2013-10-15 01:23:00,
2013-10-14 21:28:00,48.9,35.2,0.00,North,0,0.0,0.0,59,0.00,,,0.00,VWS V14.00,2013-10-15 01:28:00,
2013-10-14 21:34:00,48.9,35.2,0.00,North,0,0.0,0.0,59,0.00,,,0.00,VWS V14.00,2013-10-15 01:34:00,
2013-10-14 21:40:00,48.9,35.2,0.00,North,0,0.0,0.0,59,0.00,,,0.00,VWS V14.00,2013-10-15 01:40:00,
2013-10-14 21:45:00,48.9,35.2,0.00,North,0,0.0,0.0,59,0.00,,,0.00,VWS V14.00,2013-10-15 01:45:00,
2013-10-14 21:51:00,47.8,36.7,0.00,North,0,0.0,0.0,65,0.00,,,0.00,VWS V14.00,2013-10-15 01:51:00,
2013-10-14 21:57:00,48.2,37.8,0.00,North,0,0.0,0.0,67,0.00,,,0.00,VWS V14.00,2013-10-15 01:57:00,
2013-10-14 22:03:00,48.2,37.8,0.00,North,0,0.0,0.0,67,0.00,,,0.00,VWS V14.00,2013-10-15 02:03:00,
2013-10-14 22:08:00,48.2,37.8,0.00,North,0,0.0,0.0,67,0.00,,,0.00,VWS V14.00,2013-10-15 02:08:00,
2013-10-14 22:13:00,48.9,38.8,0.00,North,0,0.0,0.0,68,0.00,,,0.00,VWS V14.00,2013-10-15 02:13:00,
2013-10-14 22:18:00,49.1,39.4,0.00,North,0,0.0,0.0,69,0.00,,,0.00,VWS V14.00,2013-10-15 02:18:00,
2013-10-14 22:24:00,49.3,39.5,0.00,North,0,0.0,0.0,69,0.00,,,0.00,VWS V14.00,2013-10-15 02:24:00,
2013-10-14 22:30:00,49.3,39.5,0.00,North,0,0.0,0.0,69,0.00,,,0.00,VWS V14.00,2013-10-15 02:30:00,
2013-10-14 22:35:00,49.5,39.7,0.00,North,0,0.0,0.0,69,0.00,,,0.00,VWS V14.00,2013-10-15 02:35:00,
2013-10-14 22:41:00,49.5,39.7,0.00,North,0,0.0,0.0,69,0.00,,,0.00,VWS V14.00,2013-10-15 02:41:00,
2013-10-14 22:46:00,49.5,40.1,0.00,North,0,0.0,0.0,70,0.00,,,0.00,VWS V14.00,2013-10-15 02:46:00,
2013-10-14 22:52:00,49.6,40.3,0.00,North,0,0.0,0.0,70,0.00,,,0.00,VWS V14.00,2013-10-15 02:52:00,
2013-10-14 22:57:00,49.6,40.3,0.00,North,0,0.0,0.0,70,0.00,,,0.00,VWS V14.00,2013-10-15 02:57:00,
2013-10-14 23:03:00,49.6,40.6,0.00,North,0,0.0,0.0,71,0.00,,,0.00,VWS V14.00,2013-10-15 03:03:00,
2013-10-14 23:08:00,49.6,40.6,0.00,North,0,0.0,0.0,71,0.00,,,0.00,VWS V14.00,2013-10-15 03:08:00,
2013-10-14 23:14:00,49.6,41.0,0.00,North,0,0.0,0.0,72,0.00,,,0.00,VWS V14.00,2013-10-15 03:14:00,
2013-10-14 23:20:00,49.6,41.0,0.00,North,0,0.0,0.0,72,0.00,,,0.00,VWS V14.00,2013-10-15 03:20:00,
2013-10-14 23:25:00,49.5,40.8,0.00,North,0,0.0,0.0,72,0.00,,,0.00,VWS V14.00,2013-10-15 03:25:00,
2013-10-14 23:31:00,49.5,40.8,0.00,North,0,0.0,0.0,72,0.00,,,0.00,VWS V14.00,2013-10-15 03:31:00,
2013-10-14 23:36:00,49.5,40.8,0.00,North,0,0.0,0.0,72,0.00,,,0.00,VWS V14.00,2013-10-15 03:36:00,
2013-10-14 23:42:00,49.5,41.2,0.00,North,0,0.0,0.0,73,0.00,,,0.00,VWS V14.00,2013-10-15 03:42:00,
2013-10-14 23:47:00,49.5,41.2,0.00,North,0,0.0,0.0,73,0.00,,,0.00,VWS V14.00,2013-10-15 03:47:00,
2013-10-14 23:52:00,49.5,41.5,0.00,North,0,0.0,0.0,74,0.00,,,0.00,VWS V14.00,2013-10-15 03:52:00,
2013-10-14 23:58:00,49.3,41.4,0.00,North,0,0.0,0.0,74,0.00,,,0.00,VWS V14.00,2013-10-15 03:58:00,